Location: Mannheim
(49.4880°N, 8.4650°E)
Time: 06:52:15
(UTC+01:00)

ISS - Pass Details

Date: 22 November 2023
Orbit: 416 x 417 km, 51.6° (Epoch: 01 December)

Event Time Altitude Azimuth Distance (km) Brightness Sun altitude
Rises 17:25:03 0° 231° (SW) 2,351 1.8 -7.9°
Reaches altitude 10° 17:27:11 10° 226° (SW) 1,491 0.3 -8.2°
Maximum altitude 17:30:24 47° 151° (SSE) 567 -3.2 -8.7°
Enters shadow 17:33:15 13° 79° (E) 1,342 -1.9 -9.1°
